This demonstration page uses our WeatherBlox Daily Observations layout. Learn more.

Left ArrowRight Arrow

Hourly Observations for April 7, 2021

Temp ( °F °C ) Dew Point ( °F °C ) Humidity (%) Winds ( mph kmh ) Pressure ( in mb ) Visibility ( mi km ) Precip ( " mm )
12:53 am 00:53 Clear 55 12.8 48 8.9 77 77 Calm 30.04 1017 10 16 0.00 0.00
1:53 am 01:53 Clear 54 12.2 48 8.9 80 80 Calm 30.04 1017 10 16 0.00 0.00
2:53 am 02:53 Clear 53 11.7 47 8.3 80 80 Calm 30.04 1017 10 16 0.00 0.00
3:53 am 03:53 Clear 53 11.7 47 8.3 80 80 Calm 30.04 1017 10 16 0.00 0.00
4:53 am 04:53 Clear 50 10 47 8.3 89 89 Calm 30.04 1017 10 16 0.00 0.00
5:53 am 05:53 Clear 51 10.6 47 8.3 86 86 Calm 30.05 1018 10 16 0.00 0.00
6:53 am 06:53 Clear 49 9.4 47 8.3 93 93 Calm 30.05 1018 10 16 0.00 0.00
7:53 am 07:53 Sunny 50 10 48 8.9 93 93 Calm 30.07 1018 10 16 0.00 0.00
8:53 am 08:53 Sunny 57 13.9 50 10 78 78 Calm 30.07 1018 10 16 0.00 0.00
9:53 am 09:53 Sunny 62 16.7 50 10 65 65 WSW 3 6 30.07 1018 10 16 0.00 0.00
10:53 am 10:53 Sunny 71 21.7 54 12.2 55 55 Calm 30.07 1018 10 16 0.00 0.00
11:53 am 11:53 Sunny 75 23.9 55 12.8 50 50 VRB 6 9 30.06 1018 10 16 0.00 0.00
12:53 pm 12:53 Mostly Sunny 77 25 51 10.6 40 40 SSE 6 9 30.04 1017 10 16 0.00 0.00
1:53 pm 13:53 Mostly Cloudy 79 26.1 52 11.1 39 39 WNW 6 9 30.01 1016 10 16 0.00 0.00
2:53 pm 14:53 Partly Cloudy 80 26.7 49 9.4 34 34 undefined N/A 29.99 1016 10 16 0.00 0.00
3:53 pm 15:53 Mostly Cloudy 81 27.2 49 9.4 33 33 S 7 11 29.97 1015 10 16 0.00 0.00
4:53 pm 16:53 Mostly Sunny 80 26.7 48 8.9 33 33 S 9 15 29.94 1014 10 16 0.00 0.00
5:53 pm 17:53 Mostly Sunny 79 26.1 49 9.4 35 35 SSW 9 15 29.94 1014 10 16 0.00 0.00
6:53 pm 18:53 Mostly Sunny 78 25.6 49 9.4 36 36 SSW 9 15 29.93 1014 10 16 0.00 0.00
7:53 pm 19:53 Sunny 76 24.4 49 9.4 39 39 S 5 7 29.91 1013 10 16 0.00 0.00
8:53 pm 20:53 Clear 73 22.8 50 10 44 44 S 5 7 29.90 1012 10 16 0.00 0.00
9:53 pm 21:53 Clear 71 21.7 50 10 47 47 SSE 7 11 29.91 1013 10 16 0.00 0.00
10:53 pm 22:53 Clear 70 21.1 50 10 49 49 Calm 29.93 1014 10 16 0.00 0.00
11:53 pm 23:53 Clear 64 17.8 52 11.1 65 65 Calm 29.93 1014 10 16 0.00 0.00

Powered by AerisWeather